BREEZE-KM DEB

Satellite information

Favourite Embed

Satellite Type and Status

DEBRISIN ORBIT

Key statistics

Satellite BREEZE-KM DEB at a glance.

Uptime

3865

Days in orbit

Revolutions

≈ 12.9

Per day

Orbit

LEO

Low Earth Orbit

Inclination

82.5

Latest

Satellite identification and parameters

Extended collection of information and parameters for BREEZE-KM DEB.

Object identification

Identified? True

Debris? True

Object name: BREEZE-KM DEB

International designator: 2015-020L

Object number (NORAD): 41723

Object ID (CCSDS): 41723

Country: COMMONWEALTH OF INDEPENDENT STATES (CIS)

Current information (Y/N): Y

RCS size: SMALL

Orbital parameters

Period: 111.385 minutes

Inclination: 82.4852 deg

SMA: 7668.514 km

Apoapsis: 1461.575 km

Periapsis: 1119.184 km

RAAN: 314.0748 deg

Eccentricy: 0.02232449

Argument of periapsis: 83.4181 deg

Mean anomaly: 279.2286 deg

Mean motion: 12.92813619 rev/day

Mean motion (dot): 0.00000311 rev/day2

B* drag term: 0.00097891883 1/REarth

Two-line elements (TLE)

Creation date: Oct. 18, 2025, 2:17 a.m.

Reference frame: TEME

Reference center: EARTH

Epoch: Oct. 17, 2025, 7:43 p.m. UTC

TLE line 0: 0 BREEZE-KM DEB

TLE line 1: 1 41723U 15020L 25290.82179712 .00000311 00000-0 97892-3 0 9993

TLE line 2: 2 41723 82.4852 314.0748 0223245 83.4181 279.2286 12.92813619468015

Live tracking on map

Real-time ground track for satellite BREEZE-KM DEB.

In-orbit conjunctions

A list of the most updated potential collisions computed for object BREEZE-KM DEB.

Target Orbit TCA Probability of collision Miss distance Type
COSMOS 2201 LEO 2025-03-15 21:55:10 0.0001603613 745.0 (m) PAYLOAD
COSMOS 2147 LEO 2025-02-04 16:07:22 0.0001337328 106.0 (m) PAYLOAD

Associated space launch

Gonets-M are an upgraded version of Gonets satellites, derived from military communications system Strela-3. Gonets-M constellation is tasked with monitoring ecological and industrial objects, providing communication and data transmission services, covering also the remote areas like the Far North region.

BREEZE-KM DEB was lifted into orbit during the mission ‘Rokot / Briz-KM | Gonets M-21, Gonets M-22, Gonets M-23, Kosmos 2504’, on board a Rokot/Briz-KM space rocket.

The launch took place on March 31, 2015, 1:47 p.m. from 133/3 (133L).

For more information about the launch, click the button.

Launch to space Rokot / Briz-KM | Gonets M-21, Gonets M-22, Gonets M-23, Kosmos 2504
Rokot / Briz-KM | Gonets M-21, Gonets M-22, Gonets M-23, Kosmos 2504

Agency: N/A

Status: Launch Successful

Launch date: March 31, 2015, 1:47 p.m. UTC

Rocket: Rokot/Briz-KM

Launch pad: 133/3 (133L)

Location: Plesetsk Cosmodrome, Russian Federation

...

Latest news about this satellite

There are no fresh news available about this satellite. Check back as we update our databases every day.


Newsletter sign-up

Weekly statistics, charts and insights to help you stay on top of the space industry.